Weather History for Covington, KY

Change the Weather History Date:

Tuesday, June 4, 2013

  Actual Average Record
Temperature  
Mean Temperature 66 °F 69 °F  
Max Temperature 77 °F 79 °F 96 °F (1925)
Min Temperature 55 °F 59 °F 43 °F (1929)
Degree Days  
Heating Degree Days 0 1  
Month to date heating degree days 1 5  
Since 1 June heating degree days 1 5  
Since 1 July heating degree days 4981 4965  
Cooling Degree Days 1 5  
Month to date cooling degree days 16 20  
Year to date cooling degree days 155 114  
Since 1 June cooling degree days 16 20  
Growing Degree Days 16 (Base 50)    
Moisture  
Dew Point 45 °F    
Average Humidity 54    
Maximum Humidity 83    
Minimum Humidity 25    
Precipitation  
Precipitation 0.00 in 0.16 in 1.93 in (2008)
Month to date precipitation 0.02 0.61  
Year to date precipitation 17.90 19.20  
Snow  
Snow 0.00 in 0.00 in 0.00 in ()
Month to date snowfall 0.0 0.0  
Since 1 June snowfall 0.0 0.0  
Since 1 July snowfall 25.2 22.1  
Snow Depth 0.00 in    
Sea Level Pressure  
Sea Level Pressure 30.09 in    
Wind  
Wind Speed 7 mph (ENE)    
Max Wind Speed 14 mph    
Max Gust Speed 18 mph    
Visibility 10 miles    
Events      
T = Trace of Precipitation, MM = Missing Value Source: NWS Daily Summary

Daily Weather History Graph

Daily Weather History Graph

Search for Another Location

Airport:

Trip Planner

Search our weather history database for the weather conditions in past years. The results will help you decide how hot, cold, wet, or windy it might be!

Date:

Astronomy

Jun. 04, 2013 Rise Set
Actual Time 6:13 AM EDT 9:00 PM EDT
Civil Twilight 5:42 AM EDT 9:32 PM EDT
Nautical Twilight 5:02 AM EDT 10:12 PM EDT
Astronomical Twilight 4:17 AM EDT 10:57 PM EDT
Moon 3:41 AM EDT (6/4) 5:30 PM EDT (6/4)
Length of Visible Light 15h 50m
Length of Day
14h 47m
Waning Crescent, 14% of the Moon is Illuminated
Jun 4
Waning Crescent
Jun 8
New
Jun 16
First Quarter
Jun 23
Full
Jun 30
Last Quarter

Hourly Weather History & Observations

Time (EDT) Temp. Dew Point Humidity Pressure Visibility Wind Dir Wind Speed Gust Speed Precip Events Conditions
12:52 AM 59.0 °F 50.0 °F 72% 30.05 in 10.0 mi Calm Calm - N/A   Clear
1:52 AM 57.0 °F 50.0 °F 77% 30.06 in 10.0 mi East 5.8 mph - N/A   Clear
2:52 AM 57.9 °F 51.1 °F 78% 30.06 in 10.0 mi ENE 6.9 mph - N/A   Clear
3:52 AM 57.0 °F 51.1 °F 81% 30.07 in 10.0 mi East 3.5 mph - N/A   Clear
4:52 AM 55.9 °F 50.0 °F 80% 30.09 in 10.0 mi NE 3.5 mph - N/A   Clear
5:52 AM 55.9 °F 50.0 °F 80% 30.09 in 10.0 mi NE 8.1 mph - N/A   Clear
6:52 AM 55.0 °F 48.0 °F 77% 30.11 in 10.0 mi East 8.1 mph - N/A   Clear
7:52 AM 57.9 °F 46.9 °F 67% 30.12 in 10.0 mi East 5.8 mph - N/A   Clear
8:52 AM 62.1 °F 46.0 °F 56% 30.13 in 10.0 mi ENE 8.1 mph - N/A   Partly Cloudy
9:52 AM 64.9 °F 43.0 °F 45% 30.12 in 10.0 mi East 10.4 mph - N/A   Scattered Clouds
10:52 AM 66.9 °F 43.0 °F 42% 30.12 in 10.0 mi East 11.5 mph - N/A   Partly Cloudy
11:52 AM 69.1 °F 45.0 °F 42% 30.12 in 10.0 mi ESE 8.1 mph - N/A   Clear
12:52 PM 71.1 °F 44.1 °F 38% 30.13 in 10.0 mi NE 8.1 mph - N/A   Clear
1:52 PM 73.0 °F 44.1 °F 35% 30.11 in 10.0 mi ENE 9.2 mph 17.3 mph N/A   Partly Cloudy
2:52 PM 75.0 °F 43.0 °F 32% 30.08 in 10.0 mi East 9.2 mph - N/A   Scattered Clouds
3:52 PM 75.0 °F 41.0 °F 29% 30.08 in 10.0 mi East 5.8 mph - N/A   Scattered Clouds
4:52 PM 75.9 °F 37.9 °F 25% 30.09 in 10.0 mi East 8.1 mph - N/A   Mostly Cloudy
5:52 PM 75.0 °F 39.0 °F 27% 30.07 in 10.0 mi NE 9.2 mph - N/A   Mostly Cloudy
6:52 PM 75.0 °F 39.9 °F 28% 30.06 in 10.0 mi East 8.1 mph - N/A   Mostly Cloudy
7:52 PM 72.0 °F 41.0 °F 33% 30.06 in 10.0 mi ESE 6.9 mph - N/A   Mostly Cloudy
9:52 PM 66.9 °F 44.1 °F 44% 30.06 in 10.0 mi Calm Calm - N/A   Mostly Cloudy
10:52 PM 64.9 °F 46.0 °F 50% 30.07 in 10.0 mi ENE 5.8 mph - N/A   Mostly Cloudy
11:52 PM 63.0 °F 45.0 °F 52% 30.07 in 10.0 mi East 5.8 mph - N/A   Mostly Cloudy